Theta_e
308 308 307 307 306 305 305 305 305 306 306 306 306 305 305 305 304 304 304 304 304 305 305 305 305 306 306 306 307 308 310 312 313 315 318 321 321 322 322 323 323 319 314 313 313 314 316 319 320 321 323 325 326 327 329 333 335 336 336 336 335 335 334 334 333 332 332 331 330 330 330 330 330 330 330 329 328 326 325 325 326 327 329 331 330
306 306 306 306 306 306 306 307 307 307 307 306 306 305 305 305 305 305 304 304 304 304 304 304 305 305 305 305 306 306 307 308 309 311 313 317 321 323 323 321 321 319 315 313 314 314 315 316 316 316 317 319 320 320 322 328 335 336 335 336 336 335 335 334 333 332 332 332 332 332 331 330 330 330 330 329 327 326 325 324 324 324 324 325 325
306 307 307 307 307 307 307 307 307 306 306 306 306 305 305 305 304 304 304 304 304 304 304 304 304 304 305 305 306 308 310 311 311 311 313 316 319 320 322 320 319 317 315 315 316 317 316 315 315 314 313 313 315 315 314 318 328 334 335 335 335 335 335 334 334 333 333 332 332 332 332 331 330 330 329 328 326 324 323 323 324 323 323 323 323
307 307 306 307 307 307 307 306 306 306 306 305 305 306 305 305 305 305 305 305 305 305 305 304 304 304 305 306 307 309 314 317 319 318 317 316 316 316 318 318 317 316 315 317 318 319 319 317 315 313 313 312 312 312 310 310 316 326 333 336 335 335 335 335 334 333 332 332 332 333 332 331 330 329 328 326 324 323 323 323 323 324 323 323 323
306 306 305 306 306 306 306 305 305 305 305 305 305 305 304 304 305 305 305 305 305 305 305 305 304 304 304 305 306 307 309 314 319 322 321 318 316 316 317 318 318 317 315 316 317 318 319 319 318 315 314 314 313 311 310 309 309 313 323 332 335 335 335 334 334 333 333 332 331 332 331 330 329 328 327 326 324 323 322 323 323 323 322 320 318
306 305 305 305 305 305 305 305 305 304 304 304 303 303 303 303 303 303 303 303 303 304 304 304 304 304 304 304 305 305 306 306 309 314 318 318 317 316 317 317 318 319 317 314 314 316 318 319 319 317 315 314 314 314 313 312 310 309 312 320 328 333 334 334 333 333 332 332 331 330 330 329 329 327 326 325 324 323 323 322 322 321 320 318 316
305 305 305 305 304 304 303 303 303 302 302 302 302 302 302 302 302 303 303 303 303 303 303 303 303 303 303 304 304 305 305 305 305 306 309 311 313 315 317 317 317 318 317 314 312 313 314 315 316 316 315 313 313 314 314 314 313 312 310 312 320 329 333 333 333 332 332 332 332 330 329 330 329 328 326 325 323 323 323 322 321 320 320 319 318
304 304 303 303 302 302 301 301 301 301 301 301 302 302 302 302 302 303 303 303 303 303 303 303 302 303 303 303 303 304 304 304 305 305 306 307 308 311 314 316 316 316 315 314 313 311 311 312 313 314 314 313 312 311 311 313 315 316 314 312 317 326 329 329 330 331 331 332 332 331 330 329 330 329 328 326 324 323 322 322 321 320 320 320 319
302 302 302 301 301 301 301 301 300 300 301 301 301 301 301 302 302 302 302 303 303 303 303 303 303 303 303 302 303 303 304 303 303 304 305 306 307 308 309 311 313 314 314 313 313 313 311 310 310 311 311 310 310 310 310 312 316 318 316 313 313 319 324 326 329 331 332 333 332 331 330 329 330 330 329 327 325 324 323 321 320 319 318 317 317
301 301 301 301 301 301 301 300 300 300 300 300 301 301 301 301 302 302 302 302 303 303 303 303 303 303 303 303 303 303 303 303 304 304 304 304 305 306 307 308 310 312 313 314 314 314 313 312 310 308 307 307 308 309 311 313 317 319 320 317 311 313 323 331 333 333 334 335 333 332 331 331 330 329 328 327 325 325 324 321 319 318 317 314 314
300 300 300 300 300 300 300 300 299 299 299 299 300 300 301 301 301 301 302 302 302 302 303 303 303 303 303 303 303 303 303 303 303 304 305 305 304 304 305 306 307 309 311 312 313 313 313 313 312 309 308 308 309 309 310 313 317 320 323 324 321 323 329 334 335 335 335 334 333 332 332 331 331 329 328 326 324 324 322 320 318 317 316 313 313
299 299 299 299 298 298 298 298 297 297 297 298 298 299 299 300 301 301 301 301 302 302 302 302 303 303 303 303 303 303 303 303 303 303 304 304 305 305 305 306 306 307 308 309 311 312 313 313 313 312 311 310 309 309 310 312 317 321 322 323 326 330 332 333 333 334 333 334 333 332 332 331 330 329 328 326 324 322 321 319 317 316 315 312 312
298 297 297 297 296 296 296 296 296 296 296 296 297 297 298 298 299 300 300 301 301 301 302 302 302 302 303 303 303 303 303 303 304 303 303 303 304 304 305 306 306 306 307 308 309 310 312 313 313 313 313 311 309 308 309 312 317 321 321 321 323 327 330 330 330 331 331 331 332 331 330 330 330 329 327 325 324 323 321 319 317 316 315 312 311
296 295 295 295 295 294 294 294 294 294 294 295 295 296 296 297 298 298 299 300 300 301 301 301 302 302 302 302 303 303 303 303 304 304 304 303 303 304 304 305 306 306 308 308 310 312 314 314 313 313 313 312 311 309 309 312 316 320 321 320 321 322 324 326 328 329 328 325 325 327 328 327 328 328 327 325 324 323 321 318 317 315 314 312 311
295 294 294 294 294 294 293 293 293 293 293 293 294 294 295 295 296 297 297 298 299 300 300 301 301 301 302 302 302 302 303 303 303 303 303 303 303 304 304 304 305 306 307 308 309 312 314 315 315 314 314 313 313 311 310 311 314 317 319 320 322 321 321 322 323 323 323 324 327 329 328 328 328 327 326 324 323 323 321 318 316 314 313 312 312
294 294 294 294 294 293 293 293 293 293 293 293 293 293 293 294 294 295 296 296 297 298 299 300 301 301 301 302 302 302 302 303 303 303 303 303 303 304 304 304 304 305 306 307 309 311 313 315 316 316 315 314 314 313 312 312 312 314 317 319 321 321 321 322 322 320 321 326 329 328 328 329 328 327 326 324 323 322 321 318 315 313 312 313 313
294 294 293 293 293 293 293 292 292 292 292 292 292 292 292 293 293 294 294 295 296 297 298 298 299 300 301 301 301 302 302 302 302 303 303 303 303 304 303 304 304 304 305 306 307 309 311 314 316 317 317 316 315 314 314 314 313 313 314 316 319 320 321 322 323 322 322 322 323 325 328 329 328 327 325 324 322 321 319 317 314 313 313 313 313
293 293 293 293 293 292 292 292 292 292 292 292 292 292 292 292 292 293 293 294 295 295 296 297 298 299 300 301 301 301 301 302 302 302 303 303 303 303 304 304 304 304 304 305 305 306 308 311 314 316 317 317 316 316 316 315 315 314 313 314 316 319 321 323 324 323 323 322 324 327 329 328 327 326 324 323 321 320 318 316 313 313 314 312 312
293 293 293 292 292 292 292 291 292 292 292 292 292 291 291 291 292 292 293 293 294 294 295 296 297 298 299 300 300 300 301 301 301 302 302 303 303 303 303 304 304 304 304 305 305 306 306 308 311 313 314 314 316 318 317 317 317 316 314 313 315 318 321 323 324 324 324 323 324 327 328 328 327 326 324 322 320 319 317 315 313 313 312 310 310
293 292 292 292 291 291 291 291 291 291 291 292 292 291 291 291 291 292 292 293 293 294 294 295 296 297 298 299 299 300 300 300 301 301 302 302 303 303 303 304 304 304 304 304 305 306 306 307 308 310 311 312 315 318 318 318 318 317 316 314 315 317 320 322 323 325 327 326 325 325 326 327 327 325 323 322 319 318 316 314 312 311 309 309 309
292 291 291 291 291 291 291 291 291 291 291 291 292 291 291 291 291 291 292 292 293 293 294 294 295 296 297 298 299 299 300 300 300 300 301 302 302 303 303 304 304 304 304 305 305 305 306 307 307 308 309 310 311 314 316 318 319 318 317 316 316 317 319 320 322 324 325 325 325 325 325 326 326 324 323 321 319 317 315 312 311 309 308 308 309
291 291 291 291 291 291 291 291 290 290 291 291 292 291 291 291 291 291 292 293 293 294 294 294 295 295 296 297 298 299 299 300 300 300 300 301 301 302 303 304 304 304 304 304 305 306 306 307 308 308 308 309 309 310 312 315 319 319 318 318 318 318 318 320 321 322 322 323 324 325 325 325 324 322 321 320 318 317 314 311 310 308 307 308 308
291 291 291 291 291 291 291 290 290 290 291 291 292 292 291 290 290 291 292 293 294 294 294 294 295 295 296 297 298 298 299 299 300 300 300 300 301 301 302 303 304 304 304 304 304 305 306 307 308 308 308 309 309 309 310 312 316 319 319 319 319 319 319 320 320 321 322 322 323 324 323 322 321 321 320 318 317 315 312 310 309 308 307 308 308
291 291 291 291 291 291 290 290 289 290 290 291 291 291 290 290 290 290 292 293 294 294 294 294 295 295 295 296 297 298 298 299 299 300 300 300 300 300 301 302 303 304 304 304 304 304 305 306 307 307 308 308 308 309 309 309 311 314 317 319 319 319 319 320 320 320 321 322 322 323 322 321 320 319 319 317 315 313 311 309 309 308 308 308 307
291 291 291 291 291 290 290 289 289 289 289 290 290 290 290 291 291 291 292 293 294 294 294 294 294 295 295 296 296 297 298 298 299 299 300 300 300 300 300 301 302 303 304 304 304 304 304 305 306 307 308 308 308 309 309 310 310 310 313 315 316 317 319 320 321 321 321 321 321 321 320 319 319 318 317 316 314 312 311 309 309 308 308 307 307
292 291 291 291 291 291 290 289 289 288 289 289 290 290 291 292 293 293 293 293 294 294 294 294 294 294 295 295 296 296 297 298 298 299 299 300 300 300 300 300 301 302 303 304 304 304 304 304 305 306 307 308 308 309 309 309 309 308 310 312 313 315 318 319 320 320 320 320 320 319 318 318 318 317 316 314 313 312 311 309 308 308 307 307 306
292 291 291 291 291 291 291 289 289 288 289 289 289 290 292 292 292 293 293 293 293 294 294 294 294 294 294 295 295 296 296 297 298 298 299 299 300 300 299 299 300 301 302 304 304 304 304 304 305 305 306 307 307 308 309 309 308 308 309 310 311 313 315 317 318 318 319 319 319 318 317 317 317 316 315 313 312 312 310 309 308 307 306 306 306
291 291 291 291 291 291 291 289 288 289 289 289 289 290 291 292 292 292 292 292 292 293 293 293 293 294 294 294 294 295 295 296 297 298 298 299 299 299 300 299 299 300 301 303 304 304 304 304 305 305 305 306 306 307 308 307 307 307 308 309 310 311 313 315 317 317 318 318 318 317 317 317 316 315 315 313 312 311 310 309 308 306 306 306 306
291 291 291 291 291 291 290 289 288 289 290 289 289 290 291 291 291 291 291 291 291 291 292 292 292 293 293 293 294 294 295 295 296 297 298 298 298 299 299 299 299 299 300 302 303 304 303 303 304 304 305 305 305 306 306 306 306 307 308 309 310 310 311 313 315 316 317 316 316 317 316 316 316 315 314 313 312 311 310 309 307 306 306 306 306
291 292 291 291 291 291 290 289 288 289 290 290 289 290 290 290 290 290 290 290 290 290 290 291 291 291 292 292 293 293 294 295 295 296 297 297 298 298 298 299 299 299 299 300 302 303 304 303 303 304 304 304 305 305 305 305 306 307 308 308 309 310 310 311 313 314 315 315 316 316 315 314 315 314 314 313 312 311 311 309 306 305 306 306 306
292 292 292 291 291 290 289 289 288 289 291 290 289 290 290 289 289 289 289 289 289 289 290 290 290 290 291 291 292 292 293 294 295 295 296 296 297 297 298 298 299 299 299 299 300 301 303 303 303 303 304 304 305 305 305 305 306 306 307 307 308 308 309 310 311 312 313 313 313 314 313 314 314 314 313 313 312 312 311 309 307 306 306 305 305
292 292 292 291 290 290 289 288 288 290 291 290 289 289 289 289 289 289 288 289 289 289 289 289 289 289 290 290 291 291 292 293 294 295 295 296 296 297 297 297 298 298 298 299 299 299 301 302 302 303 303 304 304 305 305 305 306 306 306 306 307 307 308 308 309 309 310 310 311 312 312 313 313 313 313 313 312 312 311 309 307 306 306 306 305
293 292 292 291 291 290 289 288 289 291 292 290 289 289 289 288 288 288 288 288 288 288 288 288 289 289 289 289 290 290 291 292 292 293 295 295 296 296 297 297 297 298 298 298 298 298 299 301 302 302 302 303 304 304 305 305 306 306 306 306 306 307 307 308 308 308 308 309 309 310 311 312 312 313 313 313 313 312 311 309 308 307 307 307 305
293 292 292 291 291 290 289 289 290 292 291 290 289 289 288 288 288 287 287 287 287 288 288 288 288 288 288 289 289 289 290 291 291 292 293 295 295 296 296 296 297 297 297 298 298 298 298 300 301 302 302 302 303 304 304 304 305 305 306 306 306 306 306 307 307 307 307 308 308 309 310 310 311 312 312 313 313 312 311 310 309 309 308 307 305
292 292 291 291 291 290 289 289 290 291 290 289 289 288 288 288 287 287 287 287 287 287 287 287 287 287 288 288 288 289 289 290 290 291 292 293 294 295 295 296 296 297 297 297 298 298 298 298 299 301 301 302 302 303 303 304 304 304 305 305 305 305 305 306 306 306 307 307 307 308 308 309 310 310 311 312 312 312 311 310 310 309 308 307 305
292 292 291 291 291 290 289 290 291 291 290 289 289 288 287 287 287 287 287 286 286 287 287 287 287 287 287 287 287 288 289 289 289 290 291 292 293 294 295 295 296 296 297 297 297 298 298 297 298 299 301 301 301 302 303 303 303 304 304 304 304 304 304 305 305 306 306 307 307 307 308 309 309 309 310 310 311 311 311 311 310 309 308 307 304
292 291 291 291 290 289 289 291 292 291 290 289 288 288 287 287 287 287 287 286 286 286 286 286 286 286 287 287 287 287 288 288 289 289 290 291 292 293 294 295 295 296 296 297 297 298 298 297 297 298 299 300 301 301 302 303 303 303 304 304 304 304 304 304 305 305 305 306 306 307 308 308 309 309 309 309 310 311 311 311 310 309 308 307 304
291 291 291 290 290 289 290 291 292 290 289 288 288 287 287 287 287 287 287 287 286 286 286 286 286 286 286 286 286 286 287 287 288 288 289 289 291 292 294 294 295 295 296 296 297 297 298 297 297 297 298 299 300 300 301 301 302 303 303 304 304 304 304 304 305 305 305 306 306 307 307 308 308 308 308 308 309 310 311 310 310 309 308 308 304
291 291 290 290 289 290 291 292 291 290 289 288 287 287 287 286 286 286 286 286 286 286 286 286 286 285 286 286 286 286 286 287 287 288 288 288 290 292 293 294 294 295 295 296 296 297 298 298 297 297 298 298 299 300 300 301 302 303 303 304 304 304 304 304 305 305 305 305 306 306 307 307 308 308 308 308 308 309 309 309 309 308 308 308 304
291 290 290 290 289 290 291 291 290 289 288 287 287 286 286 286 286 286 286 286 286 286 286 285 285 285 285 285 285 285 286 286 287 287 287 288 289 291 292 293 294 294 295 295 296 296 297 298 298 297 297 297 297 299 300 301 301 302 303 304 304 304 304 304 304 304 305 305 305 306 306 307 307 308 308 308 308 308 309 308 308 308 308 307 304
290 290 289 289 290 291 291 290 289 288 288 287 287 286 286 286 286 286 286 286 286 285 285 285 285 285 285 285 285 285 286 286 286 287 287 288 289 290 291 292 293 294 295 295 296 296 297 297 298 297 296 296 296 297 299 300 301 302 302 303 303 303 303 304 304 304 304 305 305 305 305 306 306 307 307 308 308 308 308 308 308 308 308 307 305
289 289 289 289 290 290 290 289 288 288 287 287 286 286 286 286 286 286 286 286 285 285 285 285 285 285 285 285 285 285 285 286 286 287 287 288 288 289 291 292 292 293 294 295 296 296 296 297 298 297 295 295 296 297 298 300 301 301 302 302 303 302 302 303 304 304 304 304 304 305 305 305 305 306 307 307 308 308 308 308 308 308 308 308 306
289 289 289 289 289 289 288 288 288 287 287 287 286 286 286 286 286 286 285 285 285 285 285 285 285 285 285 285 285 285 285 286 286 287 287 287 288 289 290 291 292 293 294 295 295 296 296 297 297 297 296 294 295 296 297 299 300 301 302 301 302 302 302 302 303 304 304 304 304 305 305 305 305 306 307 307 307 308 308 308 308 309 309 308 306
289 289 289 289 288 288 288 288 287 287 287 287 286 286 286 286 285 285 285 285 285 285 285 284 284 284 285 285 285 285 285 285 286 286 287 287 288 288 289 290 291 292 293 294 295 295 296 296 297 297 296 294 294 295 296 298 299 301 301 301 300 301 302 302 302 303 304 304 305 305 305 305 305 305 306 307 307 307 308 308 308 308 309 308 306
287 287 287 287 288 288 288 287 287 287 286 286 286 285 285 285 285 285 285 285 285 284 284 284 284 284 284 284 284 285 285 285 285 286 286 287 287 288 288 289 290 291 292 293 294 294 295 296 296 296 295 294 294 294 295 297 298 299 301 301 300 300 301 302 302 303 304 304 305 305 305 305 305 305 306 306 307 307 308 308 308 308 308 307 306
286 285 286 286 287 287 287 287 287 286 286 285 285 285 285 285 285 285 284 284 284 284 284 284 284 284 284 284 284 284 285 285 285 285 285 286 287 287 287 288 289 290 291 292 293 293 294 294 295 294 294 294 294 293 293 295 296 298 300 301 300 300 301 302 302 302 303 304 305 305 305 305 305 305 305 306 306 307 307 308 308 308 308 307 306
284 284 284 285 286 287 287 287 286 285 285 285 285 285 285 284 284 284 284 284 284 284 284 284 284 284 284 284 284 284 284 284 285 285 285 285 286 286 287 287 288 289 290 291 292 292 293 293 293 293 293 293 293 293 293 293 294 295 298 299 300 300 301 302 303 303 303 304 305 305 305 305 305 305 305 306 306 307 307 307 308 307 307 306 303
282 282 283 284 285 286 286 285 285 285 285 284 284 284 284 284 284 284 284 283 283 283 283 283 284 284 284 284 284 284 284 284 284 285 285 285 285 286 286 287 287 288 289 289 290 291 292 291 291 291 291 291 292 292 292 292 292 293 295 297 299 300 300 301 303 304 304 304 305 306 306 305 305 306 306 306 306 306 307 307 307 307 306 304 301
281 282 283 284 284 283 283 284 284 284 284 284 284 284 283 283 283 283 283 283 283 283 283 283 283 283 283 284 284 284 284 284 284 284 285 285 285 285 285 286 286 287 287 288 289 291 291 290 289 289 289 289 290 292 292 292 292 293 294 295 296 299 300 300 301 303 304 304 305 306 306 306 306 306 306 306 306 306 306 306 306 305 304 302 303
280 281 282 282 282 282 282 283 283 283 283 283 283 283 283 283 283 283 283 283 283 283 283 283 283 283 283 283 284 284 284 284 284 284 284 285 285 285 285 285 286 286 287 287 288 289 289 289 289 289 289 289 290 290 291 292 292 293 293 294 295 297 299 300 300 301 303 303 304 305 306 306 306 306 306 306 306 305 304 303 303 303 304 304 306
281 281 281 281 281 281 282 282 282 282 282 282 282 282 282 282 282 282 282 282 282 282 282 283 283 283 283 283 283 283 283 283 283 284 284 284 285 285 285 285 285 286 286 287 288 289 289 289 289 289 290 290 290 290 290 291 292 292 293 294 295 296 298 299 299 299 300 302 303 304 305 306 306 306 306 306 305 303 302 302 304 305 306 307 308
Wind_Speed
11 10 10 10 14 16 17 18 19 20 20 20 20 20 20 20 21 21 21 20 20 21 21 21 22 23 25 27 29 31 32 32 33 33 34 33 33 32 31 30 30 30 31 30 30 31 33 34 34 33 33 34 35 35 34 33 35 37 36 36 35 34 33 32 32 30 27 26 26 26 27 28 28 28 28 28 26 25 25 28 30 32 34 35 34
17 16 16 16 18 19 20 20 19 18 17 16 16 16 17 18 19 20 21 21 22 22 23 23 24 23 24 25 27 29 31 33 34 34 35 35 34 33 33 32 33 34 34 34 33 32 32 34 34 34 33 34 35 35 35 34 34 35 37 37 37 36 35 34 34 32 28 27 26 25 27 28 29 30 29 28 28 28 29 30 30 32 34 36 35
20 20 19 18 18 18 19 19 17 15 13 14 15 15 16 17 18 19 19 20 21 21 22 23 24 24 25 25 25 25 26 28 31 32 33 33 33 33 33 34 35 36 36 37 36 35 33 34 34 34 33 34 35 35 36 36 37 37 37 39 39 38 36 35 35 34 31 29 26 25 27 26 25 27 27 28 27 26 26 26 27 28 30 31 32
19 18 17 15 15 15 16 15 14 13 13 14 14 14 15 16 17 18 18 18 19 20 21 22 24 25 25 25 25 25 25 24 25 28 30 32 34 34 35 36 37 37 37 37 38 38 37 36 36 35 34 34 35 36 36 37 38 39 39 40 40 40 39 37 36 36 35 32 26 25 26 23 23 24 25 26 24 22 21 21 23 24 26 27 28
21 16 11 10 11 11 10 10 11 12 14 15 14 14 15 15 16 18 19 19 20 20 21 22 23 25 27 27 28 29 29 28 27 27 28 31 34 36 37 37 38 38 38 38 39 40 39 39 38 37 37 36 36 37 37 37 38 39 41 42 42 42 42 40 38 38 38 36 32 29 24 21 23 23 23 24 22 20 20 20 21 21 22 23 23
15 10 7 8 6 5 6 9 11 13 14 15 16 16 17 17 17 18 19 20 21 21 21 22 23 25 26 28 30 31 32 33 33 32 31 32 33 35 36 37 38 39 40 41 41 42 41 41 40 40 39 39 39 39 39 39 40 41 42 44 45 45 43 41 40 39 38 38 38 36 32 28 24 19 17 18 18 17 17 19 21 21 21 22 22
10 8 7 5 5 7 7 8 10 11 11 11 12 13 13 14 15 15 16 17 18 19 20 21 22 23 25 27 29 30 32 33 34 34 34 35 35 35 35 37 38 40 41 43 44 44 44 44 43 42 42 42 42 42 43 43 43 43 44 45 45 45 45 43 41 40 38 40 41 40 39 37 32 25 20 18 16 16 18 19 21 22 22 22 21
9 7 4 3 4 5 4 3 3 4 5 5 6 7 8 9 11 12 13 13 14 15 16 18 20 22 23 25 27 29 30 31 32 33 33 34 35 36 36 37 38 39 41 42 44 45 46 46 46 45 45 45 44 45 46 46 45 44 45 46 46 46 47 46 44 42 42 43 42 41 40 40 38 35 31 28 24 22 22 22 23 23 24 23 23
8 6 4 2 3 4 5 5 5 6 6 6 6 6 6 6 7 8 9 10 11 12 13 15 17 20 22 24 26 27 28 29 30 32 33 33 34 35 35 36 38 39 41 42 43 44 45 46 46 46 46 46 46 46 46 46 45 44 44 47 48 48 48 47 46 46 45 44 41 40 41 41 39 36 34 34 34 32 31 31 29 28 29 30 30
11 10 8 7 7 8 7 7 7 7 7 7 7 7 7 7 7 7 8 8 9 10 11 13 14 17 20 23 26 27 28 28 28 30 32 33 35 36 36 37 37 38 40 41 42 43 44 45 46 46 47 47 47 47 47 47 47 45 43 44 47 48 47 47 48 47 45 44 42 43 43 42 38 35 34 35 37 38 38 37 35 33 34 35 33
13 12 11 8 8 8 7 7 8 8 8 8 8 8 8 8 8 8 8 8 8 8 9 11 12 14 17 19 22 25 27 28 29 30 30 31 34 36 37 38 39 40 40 40 42 42 43 44 46 47 48 48 48 48 48 49 49 46 42 39 42 45 46 46 45 43 42 43 43 44 43 41 38 37 37 36 36 37 38 39 37 35 35 35 32
13 12 11 9 8 8 7 8 9 9 10 10 11 11 10 10 10 10 10 10 10 10 9 10 11 12 14 16 18 20 23 25 28 30 31 32 33 34 35 36 38 39 40 41 42 42 42 43 45 46 48 49 49 49 49 49 49 48 46 42 41 43 44 44 44 42 42 42 41 38 36 36 37 38 38 37 36 35 35 36 35 33 33 33 31
13 12 11 9 9 9 9 10 10 11 12 12 13 13 13 13 12 12 13 13 13 12 12 11 11 12 12 13 15 16 19 21 24 27 29 31 33 34 34 35 36 37 39 40 41 42 42 43 44 45 47 48 48 48 49 49 49 49 49 47 46 45 44 43 44 44 43 44 43 40 38 38 39 39 39 37 36 33 33 34 34 32 32 32 30
13 12 11 10 10 10 10 11 11 12 12 13 13 14 14 14 14 14 15 15 15 15 15 15 14 14 14 13 14 14 16 18 20 22 25 28 30 33 34 34 35 36 37 38 38 39 40 42 43 43 44 45 46 47 48 49 49 49 48 48 48 49 49 47 47 47 47 47 49 49 46 44 44 43 42 40 37 35 34 35 34 33 33 32 30
13 12 11 10 9 9 9 11 12 12 13 13 14 15 15 15 15 15 16 16 17 17 17 17 17 17 16 16 15 14 14 16 17 19 21 24 26 29 32 33 34 35 35 35 36 37 38 40 41 42 43 43 43 44 46 48 48 49 49 49 48 48 49 50 50 50 49 49 50 49 45 44 45 45 45 43 40 37 36 35 34 32 32 30 28
12 11 10 9 8 8 9 10 12 13 14 15 15 16 16 16 16 16 16 17 17 18 18 19 19 19 19 19 18 17 16 16 16 17 19 21 23 26 29 31 33 34 34 34 34 35 37 38 40 41 41 41 41 41 43 45 46 48 49 51 51 49 48 49 50 49 49 48 47 45 43 44 46 46 46 44 40 38 36 35 34 33 31 29 27
11 10 8 7 7 8 10 11 13 14 16 16 16 16 16 17 18 17 17 17 17 18 18 19 20 21 21 21 21 20 18 17 17 18 18 19 21 23 26 28 30 32 34 34 35 35 35 36 38 39 39 39 40 40 41 42 43 45 48 50 52 50 48 48 48 47 47 48 46 44 44 45 46 46 44 42 40 38 37 36 34 33 31 29 28
9 8 6 5 7 9 12 14 15 15 17 17 17 17 17 17 17 18 18 18 18 18 18 19 20 20 21 22 23 23 22 20 19 18 18 19 20 22 24 26 28 30 32 33 34 35 36 36 36 38 39 39 39 40 40 40 40 42 44 47 50 50 47 47 46 46 45 45 44 43 44 44 45 44 43 41 40 38 37 36 34 33 32 33 32
7 5 4 6 9 12 14 15 16 16 17 18 18 18 18 18 17 17 18 18 18 19 18 18 19 19 20 21 23 24 24 24 22 20 19 19 20 21 22 24 26 27 29 31 32 34 35 36 37 39 39 39 40 39 39 39 39 40 41 43 46 48 49 48 46 45 45 45 44 44 45 45 44 43 43 42 41 40 39 37 37 36 36 36 36
5 3 3 7 11 13 15 16 17 17 18 18 19 19 19 19 18 17 17 17 17 18 18 19 18 18 19 19 21 23 24 25 25 23 22 21 20 21 22 23 24 25 27 29 31 33 34 35 37 38 39 39 40 39 38 38 39 40 40 41 43 47 49 50 47 46 46 46 47 48 49 50 49 47 46 45 44 43 41 40 40 39 38 38 37
4 2 2 6 9 12 14 16 17 18 18 18 19 19 19 18 18 17 17 16 17 17 17 18 18 18 18 18 19 20 22 24 26 26 25 23 22 21 21 21 22 24 26 27 29 31 32 34 35 36 38 39 41 40 39 38 40 41 41 40 41 44 47 49 49 49 49 50 50 51 52 53 52 51 49 48 47 45 43 41 41 40 38 38 38
3 1 3 5 7 9 12 14 16 16 16 17 18 19 19 18 17 17 16 16 16 16 16 17 17 18 18 18 18 18 20 22 25 26 27 25 23 22 22 21 21 23 24 26 28 29 30 31 33 34 36 37 39 40 40 40 41 41 41 40 40 41 44 46 48 50 50 50 51 51 52 52 51 51 50 49 48 46 43 42 43 42 40 39 38
3 1 4 6 7 9 11 12 13 13 14 16 17 18 19 18 17 17 17 16 15 15 15 15 16 17 17 18 18 17 17 19 22 25 27 28 26 24 23 22 21 21 23 25 27 28 29 31 32 34 36 37 38 38 39 40 42 42 42 41 40 40 42 43 45 48 49 49 50 51 51 51 51 51 51 50 48 45 43 43 44 42 40 38 37
4 2 5 7 8 11 13 12 11 11 12 15 16 17 17 18 18 18 18 17 17 16 16 15 16 16 16 17 18 17 17 18 20 22 25 28 28 27 24 23 22 21 21 24 26 27 29 31 31 32 34 35 37 38 38 40 42 44 45 44 43 42 42 43 44 46 48 49 51 52 52 51 51 51 51 49 47 44 43 44 44 42 40 38 37
5 3 6 9 10 13 14 14 12 11 12 14 16 17 17 17 17 17 18 18 19 19 18 17 17 16 16 16 17 17 17 17 19 20 23 25 28 29 27 25 24 23 21 22 24 26 28 30 32 32 32 33 34 36 38 39 40 42 45 46 45 45 45 45 45 45 47 49 51 53 52 51 51 52 51 49 47 45 43 44 45 43 41 39 37
7 6 9 10 13 16 16 15 13 12 13 14 15 16 15 15 16 16 17 18 19 20 20 19 18 18 17 16 16 17 17 17 18 19 21 23 26 29 30 29 26 24 23 21 22 25 26 29 31 32 33 33 33 35 37 38 38 40 43 44 45 46 48 48 47 47 49 50 52 52 52 52 52 52 51 49 47 46 45 46 46 44 41 39 38
10 9 10 10 14 19 19 16 13 13 14 15 15 14 13 14 15 15 15 16 17 19 20 20 20 20 19 18 17 17 17 17 18 18 20 21 23 25 29 31 29 26 25 23 22 23 25 27 29 31 33 33 33 35 36 36 37 39 41 43 44 45 47 48 49 50 51 52 52 52 52 52 53 53 52 50 48 47 47 47 47 45 41 40 39
9 8 8 9 14 19 19 18 15 13 14 14 14 13 13 13 14 14 15 15 16 17 18 20 20 21 21 21 20 20 19 18 18 18 19 20 21 23 25 29 31 29 27 25 23 22 23 26 29 30 32 33 34 36 37 36 37 38 40 41 42 44 45 47 49 50 51 52 53 53 53 52 53 53 52 51 49 48 48 48 47 44 41 40 39
10 9 9 11 15 19 20 19 16 14 15 14 13 13 13 12 12 13 14 15 16 17 17 18 19 20 21 22 22 22 22 21 20 19 19 19 20 21 23 25 29 31 29 26 24 23 22 25 28 30 31 33 34 36 36 35 35 36 38 39 40 42 44 46 48 49 50 51 51 51 51 52 52 52 52 50 49 47 47 47 46 43 41 41 39
12 13 16 17 19 21 21 20 18 15 16 14 12 13 13 12 12 13 14 15 16 17 18 18 19 20 21 22 23 23 23 23 22 21 20 19 19 20 21 23 26 29 31 28 26 24 22 22 26 29 30 31 33 34 34 33 33 35 37 38 39 41 42 44 46 48 49 50 50 51 51 51 51 50 49 48 47 46 46 45 43 41 40 40 39
15 18 20 20 21 22 23 22 18 16 17 15 12 12 12 12 12 12 13 14 15 16 17 19 20 20 21 22 23 24 24 24 24 23 22 21 20 20 20 21 23 26 29 30 28 26 24 22 23 26 29 30 32 32 32 31 31 33 35 37 39 41 42 43 45 47 49 49 49 50 50 50 50 49 47 46 45 45 45 44 42 39 37 37 37
17 20 21 20 20 23 24 21 17 16 17 15 13 13 12 11 11 11 12 14 15 16 17 18 20 21 21 22 23 23 24 24 24 24 24 23 23 21 20 20 21 23 26 29 29 27 26 24 22 24 27 30 31 32 31 30 29 30 33 35 37 39 41 42 43 45 48 49 49 49 49 50 49 48 47 45 45 44 44 42 40 37 35 35 34
21 22 22 20 20 22 22 18 15 17 18 15 13 12 11 10 10 10 11 13 15 16 17 18 19 20 21 22 23 23 24 24 24 24 24 24 24 23 22 21 21 21 23 27 29 28 27 25 23 22 24 28 30 31 31 30 29 28 30 32 35 37 39 41 41 42 44 46 48 49 49 50 50 48 47 46 45 44 43 42 40 37 35 35 34
22 21 21 18 19 21 20 18 18 20 18 15 13 12 10 10 9 9 10 12 13 15 17 18 19 20 21 22 23 24 24 24 24 24 24 25 25 25 23 22 22 21 22 24 27 28 27 25 24 22 22 25 28 30 30 31 30 29 29 31 33 35 36 38 39 40 41 42 44 47 49 50 49 49 48 47 46 45 44 43 41 39 37 36 35
21 20 19 18 19 21 20 20 23 22 18 15 13 11 10 9 9 10 11 11 12 13 15 17 18 20 21 22 22 23 24 25 25 25 24 24 25 26 25 23 22 22 22 23 25 27 27 25 24 23 23 24 26 28 29 30 31 31 31 32 33 35 35 35 37 38 40 41 41 43 46 48 49 49 49 48 48 48 47 46 44 41 39 38 36
23 19 18 19 20 21 22 24 24 21 17 15 12 11 10 9 9 11 11 11 12 13 14 15 16 19 20 22 23 24 24 25 25 26 25 25 25 26 26 25 24 23 23 23 23 24 26 26 24 24 24 24 24 25 27 29 29 30 31 33 35 35 35 35 35 36 37 39 40 41 42 45 47 48 47 47 48 49 49 48 46 43 41 39 38
22 20 20 21 20 21 24 25 23 20 16 14 11 10 9 8 9 10 11 12 13 14 15 15 16 17 19 21 23 24 25 25 26 27 27 26 26 26 26 26 26 24 24 25 24 24 25 25 24 23 23 24 23 23 25 28 28 28 29 32 35 36 36 36 35 34 34 35 38 39 40 42 44 45 44 44 46 48 49 49 48 45 42 41 40
21 22 22 21 20 23 25 25 22 18 15 12 10 9 8 8 9 10 11 12 13 15 15 16 17 18 18 20 22 23 25 25 26 27 28 28 27 27 27 26 27 26 25 26 26 25 25 25 25 23 21 23 24 23 23 25 27 27 27 30 33 35 37 37 35 33 32 33 35 37 37 39 41 42 41 41 43 46 47 48 48 46 44 44 42
22 22 22 22 23 25 25 23 20 18 14 12 10 8 7 8 10 11 12 13 14 15 16 17 18 19 19 20 21 23 24 25 26 26 27 28 28 28 28 27 27 26 26 26 27 27 26 26 25 24 21 21 23 24 24 24 26 27 27 28 30 32 35 37 35 33 32 31 33 34 35 36 38 40 40 40 42 44 45 47 47 46 46 46 42
20 21 21 22 24 26 25 22 20 17 14 12 9 7 7 8 9 11 12 14 15 16 17 18 19 20 20 21 21 23 24 25 26 26 27 28 29 29 29 28 27 27 26 26 26 27 28 27 26 24 21 19 20 23 24 24 25 27 28 28 28 30 33 35 35 34 33 31 31 32 33 32 33 36 38 39 40 42 43 45 45 46 47 44 40
19 22 21 22 25 25 24 22 19 16 14 10 8 7 6 7 9 10 12 14 15 17 18 19 19 20 21 21 21 22 23 24 25 26 26 27 28 29 30 29 29 28 27 26 26 26 27 28 27 25 22 19 18 20 23 24 24 25 27 29 29 29 30 31 33 34 33 31 31 31 32 30 30 33 35 37 38 39 41 43 44 44 43 40 38
17 19 21 24 26 24 22 20 18 15 12 9 7 6 5 6 8 10 12 14 15 17 18 19 20 20 21 21 22 22 23 24 25 25 26 26 26 27 29 29 29 29 28 26 25 26 27 27 27 25 23 19 17 18 20 23 24 24 26 29 32 31 29 28 30 32 33 32 31 30 30 29 28 30 33 35 36 37 38 41 41 40 38 38 38
17 19 22 24 25 23 20 18 16 13 11 8 6 5 5 6 8 10 12 14 15 16 18 18 19 20 21 21 22 22 23 24 24 25 25 26 26 26 27 28 29 29 29 27 26 26 26 26 27 27 24 20 16 15 17 20 22 24 25 27 30 32 30 27 28 30 32 31 30 29 28 27 26 27 30 33 35 36 38 39 38 37 37 38 39
18 20 21 22 22 21 19 16 13 12 9 7 6 5 5 6 7 9 12 14 15 16 17 18 19 20 21 21 22 22 22 23 24 25 25 25 25 26 26 27 28 29 29 28 27 26 26 26 27 28 26 22 19 15 15 18 20 23 24 24 25 28 30 28 28 29 30 30 29 27 26 25 25 26 28 30 32 34 36 37 36 36 37 39 39
18 19 19 20 19 18 17 15 12 10 9 7 5 4 4 5 7 9 11 13 15 16 18 19 20 20 21 21 22 22 21 22 23 24 25 25 26 26 26 26 27 28 28 28 28 27 27 28 28 29 28 25 22 18 14 15 18 21 23 22 21 24 27 28 28 29 29 28 27 26 25 25 25 26 27 28 30 33 35 35 35 36 38 39 40
18 17 15 16 16 16 15 13 11 9 7 5 4 3 3 4 6 8 10 12 15 16 18 19 20 21 21 21 22 22 22 22 22 23 24 25 26 27 26 26 26 27 27 27 27 27 28 29 30 30 30 28 25 22 17 14 16 19 21 21 20 20 23 25 27 28 28 28 27 26 24 24 25 25 25 26 28 31 33 34 35 36 38 40 40
17 15 14 13 13 13 12 11 9 8 5 3 2 1 3 4 6 7 9 11 14 15 17 18 19 20 21 21 22 22 22 22 22 23 24 24 25 26 27 26 25 25 26 26 26 27 28 30 31 31 31 30 28 26 21 17 16 18 19 20 19 18 19 22 25 27 28 28 27 26 24 24 24 23 22 23 26 28 32 35 37 38 39 39 40
15 15 14 11 9 8 8 7 6 5 4 2 1 2 3 5 6 8 9 11 13 14 16 17 18 19 20 21 22 22 23 23 23 23 24 24 25 26 26 26 24 23 24 25 26 26 27 27 28 30 31 32 31 29 26 22 19 18 19 19 19 18 18 19 22 27 28 26 24 25 25 24 23 22 22 24 26 29 33 36 38 38 37 37 37
15 15 12 9 7 5 4 4 4 3 2 1 1 2 4 6 7 8 10 11 12 14 16 17 18 19 19 20 21 22 23 24 24 24 24 24 25 26 27 26 23 21 22 23 23 24 23 23 23 25 27 30 32 32 30 27 23 19 18 19 20 19 18 17 18 23 27 25 22 25 28 27 25 25 26 27 29 32 34 36 37 37 36 36 37
13 11 8 6 5 4 3 3 2 2 1 2 3 4 6 7 8 10 12 13 14 15 16 18 19 20 20 21 22 23 24 25 25 25 25 25 25 25 26 27 25 22 21 20 19 19 18 18 20 22 24 26 29 31 31 29 25 20 18 18 19 20 19 17 16 18 24 27 24 25 29 30 28 28 28 29 30 32 33 34 34 35 36 36 36
10 7 5 5 4 4 3 2 2 2 2 4 5 6 8 9 11 12 14 16 17 18 18 19 20 21 22 23 23 24 25 25 26 26 27 27 27 26 25 26 27 25 23 20 17 15 14 15 17 21 24 24 25 27 29 29 26 22 19 18 18 20 21 19 16 16 21 28 28 27 29 30 30 29 28 27 28 29 31 32 33 35 37 37 36
Wind_Direction
243 248 252 258 266 270 274 279 284 283 280 278 275 270 266 264 262 262 263 263 262 257 252 249 248 247 247 248 248 247 247 245 245 245 244 243 242 238 234 231 231 237 241 240 239 239 239 239 239 240 241 243 246 248 247 247 246 244 244 246 245 243 241 240 242 244 245 247 251 256 260 262 263 267 271 271 271 271 272 269 267 266 264 264 266
247 250 254 261 271 279 281 281 281 277 274 272 270 266 265 265 266 266 264 263 262 260 258 255 253 252 250 250 251 251 251 250 249 248 248 246 244 241 238 235 233 237 243 244 242 240 239 239 240 240 241 243 246 248 248 247 246 245 245 244 241 242 244 243 242 241 241 244 250 255 260 263 264 266 268 268 271 276 278 275 273 271 268 267 268
254 254 258 267 274 275 272 267 264 262 259 257 257 254 250 252 257 262 263 262 261 259 257 256 256 255 254 253 253 253 254 255 255 253 252 250 248 245 242 241 240 240 242 244 243 241 241 241 242 243 244 244 245 247 248 247 245 245 245 243 240 241 243 242 241 241 243 247 249 252 257 261 263 263 262 266 274 279 279 276 274 274 273 273 272
259 259 261 260 252 244 243 244 243 245 250 253 254 252 249 248 249 250 251 251 252 253 251 251 252 252 252 250 248 247 246 248 252 253 251 249 249 248 245 243 244 244 244 242 241 241 242 243 244 246 247 247 247 248 249 248 246 246 245 242 241 241 239 239 241 243 245 245 241 243 249 253 256 259 264 271 275 276 275 274 273 273 275 275 273
258 259 251 228 215 214 219 227 237 244 251 258 262 263 264 262 258 255 254 252 251 251 250 248 248 249 249 247 245 243 241 239 239 242 245 246 246 246 246 245 244 245 246 245 244 243 243 243 245 246 249 250 250 251 252 250 249 249 247 243 242 242 239 240 244 246 247 245 239 238 239 241 249 259 268 274 274 271 271 271 272 273 274 275 274
243 233 209 200 207 223 235 246 259 264 268 272 275 278 279 278 275 270 267 265 262 260 257 253 251 251 250 250 248 246 245 243 240 239 240 244 247 247 247 246 244 244 246 248 248 246 245 245 245 247 249 250 251 252 253 252 250 249 248 246 244 243 241 243 245 246 246 245 242 241 243 244 248 256 262 267 273 270 267 268 272 274 275 275 277
189 187 192 220 256 275 281 280 281 288 292 291 288 288 289 289 288 285 280 276 272 268 264 259 256 254 253 253 253 252 251 250 249 247 245 245 247 249 249 249 248 246 245 247 249 249 249 248 248 249 250 252 253 253 253 252 250 248 248 247 245 242 241 241 242 243 244 243 242 244 247 247 247 251 250 255 267 270 266 268 272 275 277 278 279
153 160 187 246 283 299 317 325 325 341 343 334 322 311 308 304 301 299 296 291 284 277 272 265 259 256 254 253 254 254 255 255 254 253 251 249 249 248 249 250 250 250 249 249 248 249 250 251 251 251 251 252 254 255 255 254 251 248 246 245 242 240 240 241 241 242 243 243 240 241 245 246 247 250 250 250 256 262 264 263 265 270 273 274 276
122 121 117 101 72 67 70 69 63 54 44 32 22 9 357 343 329 320 314 308 301 291 282 273 266 260 255 252 251 252 255 257 257 255 253 250 249 249 249 249 250 251 252 252 251 250 250 251 252 252 252 253 253 254 255 254 252 249 246 244 241 239 242 245 244 243 243 241 240 242 245 246 247 250 250 248 248 253 258 257 258 261 265 268 272
107 107 102 97 92 86 80 75 72 66 57 50 40 31 25 19 9 354 342 336 323 309 298 287 277 269 263 258 255 253 253 253 255 256 255 253 252 250 248 248 249 249 251 252 252 251 250 250 251 251 253 253 253 252 251 251 251 249 247 245 242 241 242 245 244 242 241 241 244 245 243 241 241 244 246 246 245 246 250 255 256 258 262 268 272
109 110 106 103 100 94 89 81 71 63 57 53 45 36 30 27 24 16 7 360 349 334 318 304 292 283 275 268 264 261 259 256 253 252 253 255 255 254 252 250 250 249 250 252 252 252 252 251 250 251 251 251 251 251 250 250 248 246 244 244 243 241 240 241 241 238 236 236 239 239 236 237 240 244 248 249 247 245 245 252 256 257 261 267 270
117 117 115 112 108 100 91 80 68 60 55 50 46 40 34 29 27 22 16 10 3 353 342 329 314 301 292 283 276 271 267 263 260 258 256 254 254 255 256 255 253 252 251 252 253 253 253 253 252 251 250 250 250 250 251 250 247 243 240 239 240 240 239 238 237 235 232 231 230 229 231 238 244 250 253 252 251 250 247 251 257 259 260 266 270
119 116 115 108 100 90 79 71 61 54 47 44 43 40 36 33 29 25 20 14 9 2 354 348 338 326 314 301 292 284 277 271 267 265 264 261 258 256 255 254 254 253 252 252 254 255 255 255 255 254 252 251 250 250 251 249 246 244 240 237 236 236 237 236 236 235 234 233 233 233 237 244 248 252 251 248 249 250 246 249 255 257 260 267 271
113 108 103 95 89 79 69 61 53 47 38 33 32 30 29 28 27 26 23 17 12 7 1 355 350 345 336 323 313 300 290 283 276 273 269 266 265 262 258 256 254 253 252 252 254 255 256 257 257 257 257 255 253 251 251 248 245 243 243 241 237 234 234 234 235 236 239 242 240 240 244 248 250 248 245 243 244 243 242 246 250 254 259 265 268
111 105 97 88 80 70 60 49 41 35 28 23 18 16 15 15 17 19 18 17 13 10 6 360 356 352 347 340 331 319 306 296 287 282 276 271 269 266 264 261 257 255 253 253 254 254 255 257 258 259 259 259 257 254 252 249 246 243 242 242 239 236 234 234 236 237 240 242 239 239 244 248 246 243 239 238 240 242 244 247 249 252 256 260 261
111 105 96 85 74 56 41 30 22 17 14 13 9 7 4 2 3 5 7 9 9 8 8 3 359 356 353 348 343 334 324 312 300 292 285 278 273 270 268 265 261 258 254 252 252 252 255 257 258 259 260 260 259 257 253 251 248 244 241 241 240 238 236 235 235 236 237 238 237 241 246 245 241 238 235 236 239 244 247 248 249 250 250 251 253
107 102 92 72 56 31 17 9 3 1 1 2 1 360 359 355 354 353 353 356 358 1 3 2 360 357 355 353 349 345 336 325 314 304 297 289 281 275 272 269 265 262 258 254 250 248 250 254 257 258 259 260 260 259 257 253 249 246 242 242 241 239 238 236 235 235 236 237 240 245 245 239 235 233 233 236 241 244 245 246 247 247 246 245 247
102 96 82 45 21 6 2 358 355 351 349 352 352 351 351 350 347 345 345 346 347 349 353 355 356 355 354 354 352 349 344 335 324 313 305 297 291 284 278 273 270 266 263 261 256 250 247 248 251 253 255 258 259 259 258 255 251 247 245 243 240 238 237 236 236 236 237 237 240 241 236 230 230 231 234 240 243 243 242 242 244 243 243 245 248
100 81 51 12 2 358 355 352 350 346 341 343 344 343 343 341 339 338 337 338 338 339 341 345 348 350 351 353 352 351 348 343 335 324 312 303 297 292 286 279 275 271 267 263 261 257 251 247 247 249 251 255 257 257 256 256 253 248 245 243 239 236 234 234 235 235 236 236 235 234 231 229 232 236 239 242 242 241 239 241 242 241 242 247 249
111 82 25 360 358 356 352 348 344 340 337 335 335 334 333 332 331 329 328 329 330 332 334 335 338 341 344 348 351 351 350 348 343 335 324 312 303 297 292 286 279 275 271 267 263 259 256 251 249 249 249 250 252 252 254 254 253 249 246 243 239 236 234 233 231 230 231 233 233 233 233 235 237 240 242 242 240 238 239 241 243 242 244 247 247
131 93 15 357 356 351 346 341 337 334 331 327 324 324 324 324 323 322 321 321 322 324 326 327 329 331 335 340 345 348 349 349 347 343 334 322 310 301 296 291 283 276 272 270 267 263 260 256 252 251 250 250 249 249 249 250 250 249 247 244 240 236 235 234 231 228 229 232 234 234 235 236 238 240 242 241 239 238 240 242 243 242 243 245 243
169 77 12 356 349 341 336 333 331 327 321 316 314 316 318 319 317 316 316 316 316 317 318 319 322 324 326 331 337 342 347 347 346 345 341 334 321 307 300 294 287 281 274 269 266 265 263 260 256 253 253 253 251 249 247 245 245 247 247 245 241 237 236 235 233 231 231 232 233 234 234 235 237 239 240 240 239 239 241 242 242 241 242 244 243
221 323 1 354 341 328 325 323 321 317 309 306 308 311 314 314 312 310 311 312 312 311 312 312 314 317 319 322 327 334 340 342 343 342 342 340 332 319 306 297 290 284 279 273 266 262 261 259 256 254 253 253 253 252 248 243 241 241 242 243 242 241 240 237 234 232 231 231 232 233 234 235 236 238 238 239 239 240 242 242 241 241 243 243 243
251 300 348 347 333 323 321 317 313 306 300 300 303 309 314 313 312 310 309 310 311 310 311 310 310 312 313 315 318 323 330 334 336 337 338 339 337 331 318 304 294 286 280 277 272 265 260 258 257 256 255 255 254 253 251 246 241 239 238 239 240 242 243 240 236 234 232 231 231 232 233 235 236 237 237 238 238 239 241 240 239 241 242 243 243
232 270 322 332 331 325 318 311 307 302 297 299 302 310 316 316 316 315 312 310 310 310 311 310 310 309 309 311 313 315 321 326 329 332 334 335 337 336 330 317 303 291 282 278 275 270 263 257 255 255 255 255 255 254 251 247 245 244 241 239 239 240 240 239 237 235 233 232 232 233 234 235 235 235 236 237 238 239 240 239 239 240 241 243 243
217 252 288 309 325 324 314 303 298 296 294 296 303 312 317 317 318 320 317 314 312 311 311 310 310 310 309 310 311 312 317 321 323 327 329 331 333 335 334 329 317 302 289 279 273 271 268 262 256 253 252 253 253 253 251 248 249 249 246 242 239 238 237 237 237 236 234 233 233 234 235 235 235 235 236 237 238 240 240 239 239 239 241 243 242
222 245 271 291 313 317 307 291 283 288 291 294 303 311 314 315 318 320 317 316 315 313 314 313 312 312 312 312 312 315 318 319 320 323 325 327 329 332 334 332 327 315 300 287 275 269 268 265 261 256 252 251 251 252 250 248 251 252 249 244 240 238 238 238 237 236 235 234 235 236 237 237 236 236 237 239 241 241 240 239 240 240 241 242 240
223 233 251 277 302 305 291 277 274 280 283 290 299 305 308 311 314 317 317 318 320 318 319 318 316 315 315 314 313 314 317 319 320 320 322 324 326 328 331 332 330 324 312 297 284 273 266 264 263 259 254 251 250 250 249 249 252 252 249 246 242 240 238 238 237 237 236 237 238 239 239 239 238 239 241 243 244 242 240 239 239 240 241 241 238
212 229 251 270 288 287 272 264 267 270 274 283 291 294 302 307 308 314 318 320 324 326 325 324 323 321 319 317 315 313 313 316 318 319 318 321 324 326 327 329 330 327 320 307 291 278 270 266 263 261 259 255 252 251 250 250 251 249 247 245 244 242 240 239 238 238 238 238 239 240 241 241 241 242 243 244 245 243 241 240 240 240 241 239 236
220 248 263 268 272 268 257 253 256 260 265 273 281 285 292 300 305 312 317 321 325 328 329 330 329 328 325 322 320 317 313 311 313 317 319 319 321 324 325 327 329 328 324 316 300 284 275 270 267 264 262 259 254 253 254 252 249 246 245 244 244 243 242 241 240 239 239 239 239 240 242 244 243 243 243 243 243 243 242 242 242 244 245 240 234
237 255 258 259 260 255 249 248 248 250 257 263 271 277 282 291 301 309 316 321 324 326 330 333 333 333 330 327 325 322 319 315 311 312 316 319 320 322 324 326 327 328 326 321 311 295 281 275 272 267 263 259 256 255 255 254 250 245 243 243 244 244 244 243 242 241 241 241 241 241 242 243 242 241 241 241 242 242 241 240 241 245 247 244 239
253 256 248 248 255 250 245 247 245 244 251 258 265 270 278 287 295 305 313 319 324 328 331 333 332 333 333 332 329 326 324 322 316 310 310 315 319 322 324 325 326 328 326 323 318 307 291 280 274 271 266 260 257 256 255 254 252 247 243 242 243 245 246 246 245 245 244 244 243 243 242 241 241 240 240 240 240 239 239 238 239 242 244 243 242
264 257 243 245 254 248 241 243 242 240 248 257 262 267 276 287 295 306 314 317 324 330 333 333 333 334 334 333 332 330 327 326 323 317 310 309 314 321 324 325 325 327 327 324 321 314 302 288 280 277 274 267 261 257 255 253 250 248 245 243 242 244 246 248 249 249 248 246 245 244 242 240 240 239 238 238 237 236 235 235 236 239 240 240 239
261 249 239 245 254 245 237 235 234 238 247 254 259 264 272 285 300 312 318 322 328 332 334 335 336 336 335 334 333 332 331 329 327 324 317 310 309 314 321 325 325 326 328 326 323 318 310 298 286 281 281 277 269 262 257 254 250 246 244 243 242 243 245 248 251 252 252 250 248 245 243 241 239 237 236 235 234 234 233 231 232 235 236 236 236
260 243 236 245 250 243 235 230 230 236 243 246 250 259 270 287 304 314 323 330 333 335 336 337 337 337 336 336 335 334 333 332 330 328 325 319 312 310 314 320 325 327 328 327 325 320 315 305 292 283 281 281 279 272 264 258 253 248 243 242 242 243 244 246 250 252 253 252 251 249 245 242 240 238 236 235 234 234 231 230 231 233 233 233 233
259 245 240 245 246 242 233 226 227 231 234 235 241 253 268 288 305 315 324 330 332 334 337 338 339 338 337 337 337 336 335 334 332 331 329 327 321 314 311 313 319 325 327 327 326 323 317 309 297 287 281 281 284 280 271 265 259 253 248 245 243 242 242 243 245 249 251 252 252 251 248 244 242 240 239 237 236 233 231 230 231 232 232 232 230
253 245 247 250 246 236 226 220 222 225 226 227 234 248 267 288 301 310 317 322 326 329 333 336 339 339 338 338 336 336 336 335 334 333 332 331 328 322 316 312 313 318 324 327 326 324 321 314 304 292 282 281 283 282 278 273 265 256 251 249 246 243 242 241 240 243 248 250 251 251 249 246 243 241 240 239 237 234 231 230 231 230 231 230 229
248 248 250 250 240 226 216 214 218 222 219 220 231 247 268 285 296 302 309 315 320 324 328 333 337 337 338 338 336 336 337 336 336 335 334 333 331 327 323 318 313 313 318 323 325 324 323 319 311 299 285 279 280 280 278 275 269 260 254 251 248 246 243 241 238 239 243 247 249 250 249 246 243 242 241 240 237 235 232 231 230 230 229 229 228
247 249 246 240 231 219 210 210 215 216 214 217 229 245 265 279 290 299 306 313 318 323 327 331 334 336 337 338 337 336 336 336 336 336 335 334 331 329 326 323 318 313 313 316 321 323 322 321 316 308 293 280 278 278 276 272 269 264 259 253 250 247 245 242 238 236 238 242 246 247 247 246 244 243 242 241 238 236 234 233 231 230 229 229 227
237 237 234 229 221 211 206 208 211 211 210 214 224 238 259 275 287 298 306 312 317 322 328 330 332 334 336 337 336 335 335 334 334 334 335 334 332 329 328 326 322 317 313 312 316 319 320 320 319 315 305 290 280 280 278 274 270 266 261 256 253 249 246 243 240 236 235 237 241 244 245 244 243 242 242 242 240 238 236 235 233 231 231 230 228
227 225 220 214 208 204 205 206 205 206 205 207 219 233 252 271 287 298 305 312 317 321 326 328 329 332 334 335 335 334 334 334 332 332 332 333 331 329 328 328 325 321 316 312 313 315 317 318 318 318 316 305 289 283 281 277 272 267 261 256 253 250 248 246 243 238 234 234 236 240 243 242 241 240 241 241 241 240 238 237 235 235 235 233 231
214 210 207 203 199 197 198 197 196 198 198 199 210 225 244 268 285 297 305 311 316 320 323 326 328 331 332 332 333 333 332 332 332 331 330 330 330 329 329 329 327 324 320 316 313 313 313 315 317 319 321 316 300 286 283 279 273 269 263 256 253 250 247 245 243 239 235 233 233 236 240 241 238 238 238 239 239 239 238 237 237 237 237 235 233
195 189 192 196 194 189 188 189 188 189 190 192 201 219 245 268 284 296 304 311 316 319 321 325 328 330 330 330 332 332 332 332 332 331 329 329 329 330 330 330 329 327 323 319 317 315 313 314 316 319 323 326 314 292 282 279 273 268 263 258 256 253 247 241 240 240 237 235 233 233 238 240 238 237 236 236 236 236 236 237 237 236 235 234 233
183 180 186 192 191 185 180 182 182 183 186 189 199 222 250 271 288 298 304 310 315 318 322 324 326 328 329 329 330 332 333 334 334 332 331 329 329 330 331 331 330 329 327 323 320 319 317 316 317 319 323 329 327 309 286 277 275 271 265 261 259 257 251 240 235 236 238 237 233 231 235 239 238 236 236 236 236 235 234 234 235 234 233 233 232
168 173 182 186 183 177 173 174 175 178 183 189 200 225 255 279 296 303 307 311 314 319 322 323 325 327 327 328 329 332 334 336 335 335 334 332 331 331 332 333 332 331 329 326 323 322 320 319 320 322 324 326 330 326 306 284 277 273 268 264 261 258 254 244 235 231 233 236 235 231 232 237 237 236 236 236 237 236 234 233 233 232 231 231 231
159 163 173 178 174 170 170 170 169 170 176 183 194 229 276 294 306 310 311 313 316 319 322 323 324 325 326 328 328 330 334 336 336 336 337 336 335 334 334 335 334 331 330 327 324 323 322 321 321 323 324 325 329 332 327 309 292 283 275 268 264 260 253 245 237 230 226 229 235 233 230 231 234 234 235 233 233 234 233 232 231 230 230 230 231
150 152 166 177 172 165 164 164 161 159 161 168 186 267 302 310 315 316 315 317 318 319 321 324 326 326 327 328 329 330 332 334 336 337 337 337 337 336 336 337 336 332 330 328 325 324 323 323 323 323 323 324 327 330 333 327 311 297 286 274 266 261 255 245 236 228 221 223 231 233 231 230 231 234 235 233 231 232 230 229 228 228 229 231 231
146 156 169 174 163 151 150 149 145 143 148 161 209 306 314 318 320 320 322 323 322 323 325 326 328 330 330 330 331 332 333 334 336 338 338 337 338 337 337 339 340 337 332 329 325 323 322 322 322 322 323 323 323 325 329 326 311 296 290 284 272 260 255 252 241 227 219 220 224 226 228 231 231 232 233 228 226 227 227 226 226 227 229 229 227
148 155 161 159 151 146 138 127 120 122 139 157 325 323 323 329 330 329 331 332 331 331 330 329 330 332 333 333 334 335 335 336 336 337 337 338 339 339 337 337 340 340 337 333 325 319 320 321 319 318 320 320 318 319 322 322 311 291 281 284 280 264 250 254 254 233 217 215 218 219 222 228 228 225 223 220 218 219 221 224 227 228 226 222 220
141 144 146 148 151 146 132 117 108 102 67 349 343 339 339 340 340 339 339 339 339 338 335 333 333 335 336 336 337 337 337 337 337 337 337 336 337 339 339 338 338 338 339 337 326 314 313 315 312 310 309 310 312 314 316 318 315 298 276 271 276 269 250 244 256 246 222 213 216 220 223 227 226 221 218 214 213 215 219 223 224 221 217 214 213
139 143 145 145 144 143 139 123 92 60 10 352 347 347 346 345 345 345 344 342 341 341 338 336 335 336 337 338 338 337 336 337 338 339 338 336 335 335 337 338 338 336 336 337 333 321 312 307 303 302 302 304 308 313 314 315 316 307 285 268 266 268 255 238 241 253 236 219 217 221 225 226 225 223 220 217 217 219 219 216 211 208 208 210 209